Regional Weather Roundup
Issued by NWS

Home | Current Version | Previous Version | Graphics & Text | Print | Product List | Glossary On
Versions: 1 2 3 4 5 6 7 8 9 10 11 12 13 14 15 16 17 18 19 20 21 22 23 24 25 26 27 28 29 30 31 32 33 34 35 36 37 38 39 40 41 42 43 44 45 46 47 48 49 50
000
ASUS43 KMPX 230401
RWRMN
WEATHER ROUNDUP FOR MINNESOTA
NATIONAL WEATHER SERVICE TWIN CITIES/CHANHASSEN MN
1100 PM CDT TUE JUL 22 2014


NOTE: "FAIR" INDICATES FEW OR NO CLOUDS BELOW 12,000 FEET WITH NO
SIGNIFICANT WEATHER AND/OR OBSTRUCTIONS TO VISIBILITY. N/A MEANS
CURRENT SKY AND/OR WEATHER CONDITIONS ARE NOT AVAILABLE.

MNZ060>063-068>070-230500-
   Twin Cities Metro

CITY           SKY/WX    TMP DP  RH WIND       PRES   REMARKS
TWIN CITIES    PTCLDY    73  55  53 N10       30.14R
ST PAUL          N/A     71  56  58 N9        30.14R
CRYSTAL        CLEAR     72  55  55 N7        30.14R
BLAINE         CLEAR     70  57  64 NW6       30.15R
LAKEVILLE      CLEAR     64  55  72 N6        30.15R
EDEN PRAIRIE   CLEAR     71  56  58 N8        30.14R
SOUTH ST PAUL  PTCLDY    73  55  53 N7        30.14R
LAKE ELMO      FAIR      68  57  68 N5        30.15R
$$
MNZ001>005-007-008-013>017-022>024-027-028-230500-
   Northwest Minnesota

CITY           SKY/WX    TMP DP  RH WIND       PRES   REMARKS
BEMIDJI        CLEAR     60  53  78 W5        30.22R
HALLOCK        CLEAR     64  59  82 N5        30.22S
ROSEAU         CLEAR     61  55  82 NW5       30.23R
WARROAD        CLEAR     63  55  77 NW5       30.22R
THIEF RVR FALL CLEAR     64  57  77 NW3       30.23S
CROOKSTON      CLEAR     64  57  77 CALM      30.24S
FOSSTON        CLEAR     57  54  88 CALM      30.24R
DETROIT LAKES  CLEAR     63  57  82 W5        30.26R
MOORHEAD       CLEAR     64  64 100 CALM      30.24S
PARK RAPIDS    CLEAR     60  54  80 NW7       30.23R
$$
MNZ006-009>011-018-025>026-230500-
   North Central Minnesota

CITY           SKY/WX    TMP DP  RH WIND       PRES   REMARKS
BAUDETTE       CLEAR     61  55  81 NW7       30.21R
FLAG ISLAND    CLEAR     66  55  68 NW12      30.19R HAZE
INTL FALLS     CLEAR     64  55  72 N5        30.17R
WASKISH        PTCLDY    66  57  72 NW6       30.21R
LONGVILLE      CLEAR     57  55  94 CALM      30.21R
GRAND RAPIDS   CLEAR     57  54  88 CALM      30.19R
CRANE LAKE     PTCLDY    57  55  94 CALM      30.18R
ORR            MOCLDY    61  55  82 CALM      30.15R
COOK           MOCLDY    57  55  94 CALM      30.17S
$$
MNZ012-019>021-037-230500-
   Northeast Minnesota

CITY           SKY/WX    TMP DP  RH WIND       PRES   REMARKS
DULUTH         CLEAR     63  54  72 NW5       30.16S
ELY            PTCLDY    57  54  88 CALM      30.16R
HIBBING        CLEAR     53  51  93 CALM      30.17S
DULUTH HARBOR  CLEAR     64  55  72 CALM      30.14S
TWO HARBORS    CLEAR     61  54  77 NW3       30.13S
SILVER BAY     CLEAR     54  54 100 CALM      30.13S
GRAND MARAIS     N/A     56  53  90 CALM      30.12R
G MARAIS ARPRT CLEAR     54  48  82 NW5       30.16S
$$
MNZ029>031-032-039>041-046>048-054>057-064-230500-
   West Central Minnesota

CITY           SKY/WX    TMP DP  RH WIND       PRES   REMARKS
FERGUS FALLS   CLEAR     63  55  77 N6        30.24S
WHEATON        CLEAR     63  57  82 CALM      30.25S
MORRIS         CLEAR     63  57  82 N7        30.23R
ALEXANDRIA     CLEAR     65  57  75 N6        30.24R
ELBOW LAKE     FAIR      63  58  83 N5        30.24R
WADENA         CLEAR     61  54  77 NW6       30.23R
GLENWOOD       CLEAR     63  55  77 NW5       30.23R
APPLETON       CLEAR     64  57  77 N8        30.21F
BENSON         CLEAR     61  57  88 N6        30.22R
ORTONVILLE     CLEAR     66  55  68 N8        30.23S
MADISON        CLEAR     70  57  64 N7        30.22S
WILLMAR        FAIR      64  55  72 NW6       30.23R
$$
MNZ033>034-036-042>043-049>051-058-059-230500-
   Central Minnesota

CITY           SKY/WX    TMP DP  RH WIND       PRES   REMARKS
ST CLOUD       CLEAR     65  55  70 N3        30.18R
SAUK CENTRE    FAIR      64  56  75 NW6       30.22R
PAYNESVILLE    HVY RAIN  61  53  73 CALM      30.21R
AITKIN         CLEAR     57  54  88 CALM      30.18S
PINE RIVER     CLEAR     61  55  82 CALM      30.24R
BRAINERD       CLEAR     59  54  83 CALM      30.21R
STAPLES        CLEAR     61  55  82 CALM      30.22R
LONG PRAIRIE   FAIR      63  54  72 CALM      30.22R
LITTLE FALLS   CLEAR     61  54  77 CALM      30.20S
LITCHFIELD     CLEAR     66  55  68 N6        30.19S
BUFFALO        CLEAR     70  54  56 NW5       30.18R
MAPLE LAKE     CLEAR     68  57  67 NW3       30.19R
$$
MNZ037-044-045-052-053-230500-
   East Central Minnesota

CITY           SKY/WX    TMP DP  RH WIND       PRES   REMARKS
PRINCETON      CLEAR     64  55  72 NW5       30.17R
MORA           CLEAR     63  55  77 CALM      30.18R
CAMBRIDGE      CLEAR     66  55  68 CALM      30.15R
RUSH CITY      PTCLDY    65  57  75 CALM      30.15R
MOOSE LAKE     CLEAR     61  54  77 CALM      30.15R
HINCKLEY       FAIR      63  57  82 NW5       30.16R
CLOQUET        CLEAR     61  54  77 CALM      30.17R
MCGREGOR       CLEAR     64  55  72 NW3       30.19R
$$
MNZ071>073-080-081-089-090-097-098-230500-
   Southwest Minnesota

CITY           SKY/WX    TMP DP  RH WIND       PRES   REMARKS
MONTEVIDEO     CLEAR     64  55  72 N7        30.22S
GRANITE FALLS  CLEAR     65  57  75 NW8       30.22S
CANBY          CLEAR     62  57  83 W5        30.24R
MARSHALL       CLEAR     63  55  77 NW7       30.21S
REDWOOD FALLS  CLEAR     69  57  65 NW8       30.19R
OLIVIA         CLEAR     63  55  77 NW6       30.20R
PIPESTONE      CLEAR     66  55  68 NE3       30.24R
WINDOM         CLEAR     64  57  77 NW10      30.20F
WORTHINGTON    CLEAR     61  55  82 NW8       30.22S
JACKSON        CLEAR     64  55  72 CALM      30.20S
TRACY          CLEAR     64  58  79 NW7       30.22S
SLAYTON        CLEAR     63  57  81 CALM      30.23S
$$
MNZ065>067-074>077-082>085-091>093-230500-
   South Central Minnesota

CITY           SKY/WX    TMP DP  RH WIND       PRES   REMARKS
MANKATO        CLEAR     70  54  56 NW9       30.16R
NEW ULM        CLEAR     66  57  72 NW8       30.18R
ST JAMES       CLEAR     64  57  77 NW5       30.19R
FAIRMONT       CLEAR     68  54  60 N8        30.18R
GLENCOE        CLEAR     69  54  58 NW7       30.17R
FARIBAULT      CLEAR     70  54  56 NW5       30.15R
OWATONNA       CLEAR     66  55  68 N6        30.15R
WASECA         CLEAR     61  52  72 NW7       30.17R
ALBERT LEA     CLEAR     70  57  64 N9        30.14R
$$
MNZ078>079-086>088-094>096-230500-
   Southeast Minnesota

CITY           SKY/WX    TMP DP  RH WIND       PRES   REMARKS
ROCHESTER      CLEAR     68  60  75 N9        30.13S
RED WING       PTCLDY    70  57  64 N6        30.11R
STANTON        PTCLDY    68  55  61 N8        30.13R
DODGE CENTER   CLEAR     66  61  82 N6        30.14R
WINONA         CLEAR     72  64  78 NW5       30.08S
AUSTIN         CLEAR     70  57  64 N6        30.12S
PRESTON        CLEAR     67  64  92 N6        30.11S
$$
ABBREVIATIONS USED IN REMARKS
   TC - TEMPERATURES IN CELSIUS
  WCI - WIND CHILL INDEX
   HX - HEAT INDEX
  VSB - VISIBILITY
$$


USA.gov is the U.S. government's official web portal to all federal, state and local government web resources and services.